Location: *
(44.3925°N, 5.4708°E)
Time: 03:31:58
(UTC+00:00)

NOSS 3-4 (C) - Pass Details

Date: 18 September 2019
Orbit: 913 x 1299 km, 63.4° (Epoch: 21 September)

Event Time Altitude Azimuth Distance (km) Brightness Sun altitude
Rises 19:49:58 0° 320° (NW) 3,865 7.8 -22.5°
Reaches altitude 10° 19:52:33 10° 316° (NW) 2,960 7.0 -22.9°
Maximum altitude 19:59:29 59° 239° (WSW) 1,340 4.3 -24.0°
Enters shadow 20:03:39 28° 172° (S) 2,114 4.9 -24.6°
